Time,TemperatureF,DewpointF,PressureIn,WindDirection,WindDirectionDegrees,WindSpeedMPH,WindSpeedGustMPH,Humidity,HourlyPrecipIn,Conditions,Clouds,dailyrainin,SoftwareType,DateUTC
2013-02-28 00:00:00,54.3,39.4,30.06,NW,311,5.0,8.0,57,0.00,,,0.00,meteohub,2013-02-28 06:00:00,
2013-02-28 00:06:00,54.3,39.4,30.06,NW,311,5.0,6.0,57,0.00,,,0.00,meteohub,2013-02-28 06:06:00,
2013-02-28 00:11:00,54.1,39.2,30.07,NW,307,4.0,8.0,57,0.00,,,0.00,meteohub,2013-02-28 06:11:00,
2013-02-28 00:16:00,53.8,39.4,30.07,NW,308,5.0,8.0,58,0.00,,,0.00,meteohub,2013-02-28 06:16:00,
2013-02-28 00:21:00,53.6,38.7,30.07,NW,311,4.0,10.0,57,0.00,,,0.00,meteohub,2013-02-28 06:21:00,
2013-02-28 00:26:00,53.2,38.5,30.06,NW,311,3.0,10.0,57,0.00,,,0.00,meteohub,2013-02-28 06:26:00,
2013-02-28 00:31:00,53.1,39.2,30.07,NW,311,4.0,10.0,59,0.00,,,0.00,meteohub,2013-02-28 06:31:00,
2013-02-28 00:36:00,52.5,38.7,30.07,NW,311,6.0,8.0,59,0.00,,,0.00,meteohub,2013-02-28 06:36:00,
2013-02-28 00:41:00,52.5,38.1,30.06,NW,311,6.0,8.0,58,0.00,,,0.00,meteohub,2013-02-28 06:41:00,
2013-02-28 00:46:00,52.3,38.5,30.07,NW,311,6.0,8.0,59,0.00,,,0.00,meteohub,2013-02-28 06:46:00,
2013-02-28 00:51:00,52.2,38.3,30.07,NW,311,6.0,8.0,59,0.00,,,0.00,meteohub,2013-02-28 06:51:00,
2013-02-28 00:56:00,52.2,38.3,30.07,NW,311,3.0,8.0,59,0.00,,,0.00,meteohub,2013-02-28 06:56:00,
2013-02-28 01:01:00,51.8,38.3,30.08,NW,311,3.0,7.0,60,0.00,,,0.00,meteohub,2013-02-28 07:01:00,
2013-02-28 01:06:00,51.6,37.8,30.07,NW,311,3.0,6.0,59,0.00,,,0.00,meteohub,2013-02-28 07:06:00,
2013-02-28 01:11:00,51.6,37.8,30.07,NW,309,4.0,9.0,59,0.00,,,0.00,meteohub,2013-02-28 07:11:00,
2013-02-28 01:16:00,51.4,37.6,30.08,NW,309,6.0,9.0,59,0.00,,,0.00,meteohub,2013-02-28 07:16:00,
2013-02-28 01:21:00,51.3,37.4,30.08,NW,311,5.0,9.0,59,0.00,,,0.00,meteohub,2013-02-28 07:21:00,
2013-02-28 01:26:00,51.3,37.8,30.08,NW,311,5.0,8.0,60,0.00,,,0.00,meteohub,2013-02-28 07:26:00,
2013-02-28 01:31:00,51.1,37.8,30.08,NW,311,5.0,8.0,60,0.00,,,0.00,meteohub,2013-02-28 07:31:00,
2013-02-28 01:36:00,51.1,37.2,30.08,NW,311,4.0,8.0,59,0.00,,,0.00,meteohub,2013-02-28 07:36:00,
2013-02-28 01:41:00,50.9,37.0,30.08,NW,311,5.0,7.0,59,0.00,,,0.00,meteohub,2013-02-28 07:41:00,
2013-02-28 01:46:00,50.7,36.9,30.08,NW,311,4.0,8.0,59,0.00,,,0.00,meteohub,2013-02-28 07:46:00,
2013-02-28 01:51:00,50.5,37.2,30.08,NW,311,3.0,8.0,60,0.00,,,0.00,meteohub,2013-02-28 07:51:00,
2013-02-28 01:56:00,50.4,37.0,30.09,NW,311,3.0,8.0,60,0.00,,,0.00,meteohub,2013-02-28 07:56:00,
2013-02-28 02:01:00,50.5,36.7,30.09,NW,311,1.0,6.0,59,0.00,,,0.00,meteohub,2013-02-28 08:01:00,
2013-02-28 02:06:00,50.4,37.0,30.08,NW,311,2.0,6.0,60,0.00,,,0.00,meteohub,2013-02-28 08:06:00,
2013-02-28 02:11:00,50.2,36.9,30.08,NW,311,3.0,4.0,60,0.00,,,0.00,meteohub,2013-02-28 08:11:00,
2013-02-28 02:16:00,50.2,36.9,30.08,NW,311,3.0,5.0,60,0.00,,,0.00,meteohub,2013-02-28 08:16:00,
2013-02-28 02:21:00,49.8,36.9,30.08,NW,311,2.0,5.0,61,0.00,,,0.00,meteohub,2013-02-28 08:21:00,
2013-02-28 02:26:00,49.6,36.7,30.08,NW,311,3.0,5.0,61,0.00,,,0.00,meteohub,2013-02-28 08:26:00,
2013-02-28 02:31:00,49.6,36.7,30.08,NW,311,1.0,4.0,61,0.00,,,0.00,meteohub,2013-02-28 08:31:00,
2013-02-28 02:36:00,49.5,36.5,30.08,NW,311,3.0,4.0,61,0.00,,,0.00,meteohub,2013-02-28 08:36:00,
2013-02-28 02:41:00,49.3,36.9,30.08,NW,311,4.0,5.0,62,0.00,,,0.00,meteohub,2013-02-28 08:41:00,
2013-02-28 02:46:00,49.1,36.7,30.08,NW,311,3.0,5.0,62,0.00,,,0.00,meteohub,2013-02-28 08:46:00,
2013-02-28 02:51:00,48.9,36.5,30.08,NW,311,3.0,5.0,62,0.00,,,0.00,meteohub,2013-02-28 08:51:00,
2013-02-28 02:56:00,48.9,36.5,30.08,NW,311,3.0,7.0,62,0.00,,,0.00,meteohub,2013-02-28 08:56:00,
2013-02-28 03:01:00,48.7,36.3,30.08,NW,311,3.0,7.0,62,0.00,,,0.00,meteohub,2013-02-28 09:01:00,
2013-02-28 03:06:00,48.7,36.3,30.08,NW,311,3.0,7.0,62,0.00,,,0.00,meteohub,2013-02-28 09:06:00,
2013-02-28 03:11:00,48.6,36.1,30.08,NW,311,2.0,6.0,62,0.00,,,0.00,meteohub,2013-02-28 09:11:00,
2013-02-28 03:16:00,48.0,36.5,30.08,NW,311,2.0,4.0,64,0.00,,,0.00,meteohub,2013-02-28 09:16:00,
2013-02-28 03:21:00,47.8,36.3,30.08,NW,311,2.0,4.0,64,0.00,,,0.00,meteohub,2013-02-28 09:21:00,
2013-02-28 03:26:00,48.4,36.0,30.07,NW,310,5.0,6.0,62,0.00,,,0.00,meteohub,2013-02-28 09:26:00,
2013-02-28 03:31:00,48.4,35.6,30.07,NW,310,5.0,8.0,61,0.00,,,0.00,meteohub,2013-02-28 09:31:00,
2013-02-28 03:36:00,48.4,36.0,30.07,NW,310,5.0,8.0,62,0.00,,,0.00,meteohub,2013-02-28 09:36:00,
2013-02-28 03:41:00,48.4,36.0,30.07,NW,311,4.0,8.0,62,0.00,,,0.00,meteohub,2013-02-28 09:41:00,
2013-02-28 03:46:00,48.0,35.6,30.07,NW,311,2.0,7.0,62,0.00,,,0.00,meteohub,2013-02-28 09:46:00,
2013-02-28 03:51:00,47.8,35.8,30.07,NW,311,2.0,7.0,63,0.00,,,0.00,meteohub,2013-02-28 09:51:00,
2013-02-28 03:56:00,47.7,36.1,30.07,NW,311,3.0,6.0,64,0.00,,,0.00,meteohub,2013-02-28 09:56:00,
2013-02-28 04:01:00,47.5,36.3,30.07,NW,311,3.0,5.0,65,0.00,,,0.00,meteohub,2013-02-28 10:01:00,
2013-02-28 04:06:00,47.3,36.1,30.07,NW,311,2.0,5.0,65,0.00,,,0.00,meteohub,2013-02-28 10:06:00,
2013-02-28 04:11:00,47.3,36.1,30.06,NW,311,2.0,5.0,65,0.00,,,0.00,meteohub,2013-02-28 10:11:00,
2013-02-28 04:16:00,47.3,36.1,30.07,NW,311,1.0,4.0,65,0.00,,,0.00,meteohub,2013-02-28 10:16:00,
2013-02-28 04:21:00,47.1,36.0,30.07,NW,311,2.0,4.0,65,0.00,,,0.00,meteohub,2013-02-28 10:21:00,
2013-02-28 04:26:00,46.9,35.8,30.07,NW,311,3.0,4.0,65,0.00,,,0.00,meteohub,2013-02-28 10:26:00,
2013-02-28 04:31:00,46.9,36.1,30.07,NW,311,5.0,5.0,66,0.00,,,0.00,meteohub,2013-02-28 10:31:00,
2013-02-28 04:36:00,46.9,36.1,30.07,NW,311,3.0,6.0,66,0.00,,,0.00,meteohub,2013-02-28 10:36:00,
2013-02-28 04:41:00,46.9,35.8,30.08,NW,311,1.0,6.0,65,0.00,,,0.00,meteohub,2013-02-28 10:41:00,
2013-02-28 04:46:00,46.9,35.8,30.08,NW,309,3.0,6.0,65,0.00,,,0.00,meteohub,2013-02-28 10:46:00,
2013-02-28 04:52:00,46.9,35.8,30.08,NW,309,4.0,7.0,65,0.00,,,0.00,meteohub,2013-02-28 10:52:00,
2013-02-28 04:56:00,46.8,36.0,30.08,NW,309,3.0,7.0,66,0.00,,,0.00,meteohub,2013-02-28 10:56:00,
2013-02-28 05:02:00,46.6,35.8,30.09,NW,308,6.0,7.0,66,0.00,,,0.00,meteohub,2013-02-28 11:02:00,
2013-02-28 05:07:00,46.0,35.8,30.09,WNW,300,7.0,8.0,67,0.00,,,0.00,meteohub,2013-02-28 11:07:00,
2013-02-28 05:12:00,46.0,36.1,30.09,WNW,296,4.0,8.0,68,0.00,,,0.00,meteohub,2013-02-28 11:12:00,
2013-02-28 05:17:00,46.0,36.1,30.09,WNW,299,7.0,8.0,68,0.00,,,0.00,meteohub,2013-02-28 11:17:00,
2013-02-28 05:22:00,46.4,35.6,30.09,WNW,299,4.0,8.0,66,0.00,,,0.00,meteohub,2013-02-28 11:22:00,
2013-02-28 05:27:00,46.4,35.6,30.09,WNW,298,6.0,8.0,66,0.00,,,0.00,meteohub,2013-02-28 11:27:00,
2013-02-28 05:32:00,46.2,35.4,30.10,WNW,298,3.0,8.0,66,0.00,,,0.00,meteohub,2013-02-28 11:32:00,
2013-02-28 05:37:00,46.0,35.2,30.10,WNW,298,5.0,7.0,66,0.00,,,0.00,meteohub,2013-02-28 11:37:00,
2013-02-28 05:42:00,45.9,35.6,30.10,WNW,296,4.0,7.0,67,0.00,,,0.00,meteohub,2013-02-28 11:42:00,
2013-02-28 05:47:00,45.5,35.6,30.10,WNW,296,4.0,7.0,68,0.00,,,0.00,meteohub,2013-02-28 11:47:00,
2013-02-28 05:52:00,45.5,35.6,30.10,WNW,292,4.0,8.0,68,0.00,,,0.00,meteohub,2013-02-28 11:52:00,
2013-02-28 05:57:00,45.3,35.1,30.10,WNW,292,5.0,8.0,67,0.00,,,0.00,meteohub,2013-02-28 11:57:00,
2013-02-28 06:02:00,45.5,35.2,30.10,WNW,286,7.0,9.0,67,0.00,,,0.00,meteohub,2013-02-28 12:02:00,
2013-02-28 06:07:00,45.5,35.2,30.10,WNW,288,7.0,9.0,67,0.00,,,0.00,meteohub,2013-02-28 12:07:00,
2013-02-28 06:12:00,45.5,35.2,30.10,WNW,290,6.0,9.0,67,0.00,,,0.00,meteohub,2013-02-28 12:12:00,
2013-02-28 06:17:00,45.3,35.1,30.10,WNW,291,5.0,10.0,67,0.00,,,0.00,meteohub,2013-02-28 12:17:00,
2013-02-28 06:22:00,45.3,35.1,30.10,WNW,294,2.0,10.0,67,0.00,,,0.00,meteohub,2013-02-28 12:22:00,
2013-02-28 06:27:00,45.1,35.2,30.11,WNW,294,5.0,8.0,68,0.00,,,0.00,meteohub,2013-02-28 12:27:00,
2013-02-28 06:32:00,45.1,35.2,30.12,WNW,288,4.0,8.0,68,0.00,,,0.00,meteohub,2013-02-28 12:32:00,
2013-02-28 06:37:00,44.8,35.2,30.12,WNW,288,2.0,8.0,69,0.00,,,0.00,meteohub,2013-02-28 12:37:00,
2013-02-28 06:42:00,44.8,35.2,30.12,WNW,288,1.0,8.0,69,0.00,,,0.00,meteohub,2013-02-28 12:42:00,
2013-02-28 06:47:00,44.8,35.2,30.12,WNW,288,2.0,7.0,69,0.00,,,0.00,meteohub,2013-02-28 12:47:00,
2013-02-28 06:52:00,44.8,35.2,30.13,WNW,288,4.0,7.0,69,0.00,,,0.00,meteohub,2013-02-28 12:52:00,
2013-02-28 06:57:00,44.8,35.6,30.13,WNW,288,4.0,7.0,70,0.00,,,0.00,meteohub,2013-02-28 12:57:00,
2013-02-28 07:02:00,44.6,35.8,30.13,WNW,288,4.0,7.0,71,0.00,,,0.00,meteohub,2013-02-28 13:02:00,
2013-02-28 07:07:00,44.4,35.6,30.13,WNW,288,2.0,7.0,71,0.00,,,0.00,meteohub,2013-02-28 13:07:00,
2013-02-28 07:12:00,44.4,36.0,30.14,WNW,288,4.0,6.0,72,0.00,,,0.00,meteohub,2013-02-28 13:12:00,
2013-02-28 07:17:00,44.4,35.6,30.14,WNW,288,5.0,7.0,71,0.00,,,0.00,meteohub,2013-02-28 13:17:00,
2013-02-28 07:22:00,45.0,35.8,30.14,WNW,288,2.0,7.0,70,0.00,,,0.00,meteohub,2013-02-28 13:22:00,
2013-02-28 07:27:00,45.1,35.6,30.14,WNW,298,5.0,7.0,69,0.00,,,0.00,meteohub,2013-02-28 13:27:00,
2013-02-28 07:32:00,45.3,35.8,30.14,WNW,299,4.0,8.0,69,0.00,,,0.00,meteohub,2013-02-28 13:32:00,
2013-02-28 07:37:00,45.7,35.8,30.14,WNW,299,6.0,8.0,68,0.00,,,0.00,meteohub,2013-02-28 13:37:00,
2013-02-28 07:42:00,46.0,36.1,30.14,WNW,297,8.0,10.0,68,0.00,,,0.00,meteohub,2013-02-28 13:42:00,
2013-02-28 07:47:00,46.0,36.1,30.14,NW,304,6.0,10.0,68,0.00,,,0.00,meteohub,2013-02-28 13:47:00,
2013-02-28 07:52:00,46.4,35.6,30.15,WNW,292,5.0,11.0,66,0.00,,,0.00,meteohub,2013-02-28 13:52:00,
2013-02-28 07:57:00,46.4,35.6,30.15,WNW,298,10.0,11.0,66,0.00,,,0.00,meteohub,2013-02-28 13:57:00,
2013-02-28 08:02:00,46.2,35.1,30.16,NW,306,7.0,13.0,65,0.00,,,0.00,meteohub,2013-02-28 14:02:00,
2013-02-28 08:07:00,46.2,35.1,30.17,WNW,300,10.0,13.0,65,0.00,,,0.00,meteohub,2013-02-28 14:07:00,
2013-02-28 08:12:00,46.2,34.3,30.16,WNW,300,11.0,14.0,63,0.00,,,0.00,meteohub,2013-02-28 14:12:00,
2013-02-28 08:17:00,46.2,34.3,30.16,WNW,302,12.0,16.0,63,0.00,,,0.00,meteohub,2013-02-28 14:17:00,
2013-02-28 08:22:00,46.0,34.2,30.16,NW,311,8.0,16.0,63,0.00,,,0.00,meteohub,2013-02-28 14:22:00,
2013-02-28 08:27:00,46.2,34.7,30.16,NNW,329,11.0,17.0,64,0.00,,,0.00,meteohub,2013-02-28 14:27:00,
2013-02-28 08:32:00,46.0,34.2,30.16,NNW,342,11.0,17.0,63,0.00,,,0.00,meteohub,2013-02-28 14:32:00,
2013-02-28 08:37:00,46.2,34.7,30.17,NW,306,6.0,15.0,64,0.00,,,0.00,meteohub,2013-02-28 14:37:00,
2013-02-28 08:42:00,46.6,35.1,30.17,NNW,329,10.0,15.0,64,0.00,,,0.00,meteohub,2013-02-28 14:42:00,
2013-02-28 08:47:00,46.6,35.1,30.17,NNW,336,8.0,14.0,64,0.00,,,0.00,meteohub,2013-02-28 14:47:00,
2013-02-28 08:52:00,46.8,34.9,30.17,WNW,297,9.0,13.0,63,0.00,,,0.00,meteohub,2013-02-28 14:52:00,
2013-02-28 08:57:00,46.9,35.1,30.17,NW,313,8.0,13.0,63,0.00,,,0.00,meteohub,2013-02-28 14:57:00,
2013-02-28 09:02:00,46.9,35.1,30.17,NNW,327,10.0,12.0,63,0.00,,,0.00,meteohub,2013-02-28 15:02:00,
2013-02-28 09:07:00,47.1,34.3,30.17,NNW,336,7.0,13.0,61,0.00,,,0.00,meteohub,2013-02-28 15:07:00,
2013-02-28 09:12:00,47.5,34.7,30.17,NW,315,8.0,16.0,61,0.00,,,0.00,meteohub,2013-02-28 15:12:00,
2013-02-28 09:17:00,47.1,34.0,30.17,NNW,327,11.0,16.0,60,0.00,,,0.00,meteohub,2013-02-28 15:17:00,
2013-02-28 09:22:00,47.3,34.5,30.17,WNW,300,10.0,16.0,61,0.00,,,0.00,meteohub,2013-02-28 15:22:00,
2013-02-28 09:27:00,48.0,35.2,30.17,WNW,302,8.0,15.0,61,0.00,,,0.00,meteohub,2013-02-28 15:27:00,
2013-02-28 09:32:00,47.8,35.4,30.17,NW,313,8.0,14.0,62,0.00,,,0.00,meteohub,2013-02-28 15:32:00,
2013-02-28 09:37:00,47.7,35.6,30.17,NNW,332,8.0,13.0,63,0.00,,,0.00,meteohub,2013-02-28 15:37:00,
2013-02-28 09:42:00,47.7,34.5,30.18,NW,319,10.0,14.0,60,0.00,,,0.00,meteohub,2013-02-28 15:42:00,
2013-02-28 09:47:00,47.8,33.8,30.17,NW,322,12.0,14.0,58,0.00,,,0.00,meteohub,2013-02-28 15:47:00,
2013-02-28 09:52:00,47.7,33.6,30.17,NW,314,6.0,14.0,58,0.00,,,0.00,meteohub,2013-02-28 15:52:00,
2013-02-28 09:57:00,47.7,34.5,30.17,NW,323,6.0,15.0,60,0.00,,,0.00,meteohub,2013-02-28 15:57:00,
2013-02-28 10:02:00,48.0,34.9,30.17,NW,315,7.0,15.0,60,0.00,,,0.00,meteohub,2013-02-28 16:02:00,
2013-02-28 10:07:00,47.8,34.2,30.18,WNW,286,12.0,13.0,59,0.00,,,0.00,meteohub,2013-02-28 16:07:00,
2013-02-28 10:12:00,47.7,33.6,30.18,WNW,303,11.0,14.0,58,0.00,,,0.00,meteohub,2013-02-28 16:12:00,
2013-02-28 10:17:00,48.2,34.2,30.18,NW,323,13.0,14.0,58,0.00,,,0.00,meteohub,2013-02-28 16:17:00,
2013-02-28 10:22:00,47.8,34.2,30.18,WNW,303,6.0,15.0,59,0.00,,,0.00,meteohub,2013-02-28 16:22:00,
2013-02-28 10:27:00,47.8,34.2,30.18,NW,307,5.0,15.0,59,0.00,,,0.00,meteohub,2013-02-28 16:27:00,
2013-02-28 10:32:00,48.0,34.9,30.17,WNW,295,6.0,15.0,60,0.00,,,0.00,meteohub,2013-02-28 16:32:00,
2013-02-28 10:37:00,48.0,34.3,30.17,WNW,300,8.0,14.0,59,0.00,,,0.00,meteohub,2013-02-28 16:37:00,
2013-02-28 10:42:00,47.8,33.3,30.17,NNW,343,14.0,14.0,57,0.00,,,0.00,meteohub,2013-02-28 16:42:00,
2013-02-28 10:47:00,47.5,33.1,30.17,NW,311,12.0,14.0,57,0.00,,,0.00,meteohub,2013-02-28 16:47:00,
2013-02-28 10:52:00,47.1,33.1,30.17,WNW,292,8.0,15.0,58,0.00,,,0.00,meteohub,2013-02-28 16:52:00,
2013-02-28 10:57:00,47.5,33.8,30.17,West,281,9.0,15.0,59,0.00,,,0.00,meteohub,2013-02-28 16:57:00,
2013-02-28 11:02:00,47.5,33.1,30.17,WNW,296,9.0,15.0,57,0.00,,,0.00,meteohub,2013-02-28 17:02:00,
2013-02-28 11:07:00,47.5,33.8,30.17,NW,319,9.0,14.0,59,0.00,,,0.00,meteohub,2013-02-28 17:07:00,
2013-02-28 11:12:00,47.7,34.0,30.17,NW,309,11.0,14.0,59,0.00,,,0.00,meteohub,2013-02-28 17:12:00,
2013-02-28 11:17:00,47.8,33.3,30.17,NW,311,9.0,16.0,57,0.00,,,0.00,meteohub,2013-02-28 17:17:00,
2013-02-28 11:22:00,47.8,33.3,30.17,WNW,303,13.0,16.0,57,0.00,,,0.00,meteohub,2013-02-28 17:22:00,
2013-02-28 11:27:00,47.7,34.0,30.17,West,271,7.0,16.0,59,0.00,,,0.00,meteohub,2013-02-28 17:27:00,
2013-02-28 11:32:00,48.2,34.2,30.17,NW,317,6.0,16.0,58,0.00,,,0.00,meteohub,2013-02-28 17:32:00,
2013-02-28 11:37:00,47.8,32.9,30.17,WNW,295,11.0,16.0,56,0.00,,,0.00,meteohub,2013-02-28 17:37:00,
2013-02-28 11:42:00,48.6,34.5,30.17,WNW,298,6.0,16.0,58,0.00,,,0.00,meteohub,2013-02-28 17:42:00,
2013-02-28 11:47:00,49.3,34.7,30.17,North,0,10.0,16.0,57,0.00,,,0.00,meteohub,2013-02-28 17:47:00,
2013-02-28 11:52:00,48.9,33.4,30.16,NW,319,8.0,16.0,55,0.00,,,0.00,meteohub,2013-02-28 17:52:00,
2013-02-28 11:57:00,48.6,33.6,30.16,WNW,298,7.0,16.0,56,0.00,,,0.00,meteohub,2013-02-28 17:57:00,
2013-02-28 12:02:00,48.4,32.9,30.16,NW,315,6.0,16.0,55,0.00,,,0.00,meteohub,2013-02-28 18:02:00,
2013-02-28 12:07:00,48.6,33.6,30.16,NW,309,11.0,16.0,56,0.00,,,0.00,meteohub,2013-02-28 18:07:00,
2013-02-28 12:12:00,48.6,32.7,30.15,NW,319,12.0,16.0,54,0.00,,,0.00,meteohub,2013-02-28 18:12:00,
2013-02-28 12:17:00,48.6,32.2,30.15,NNW,328,11.0,16.0,53,0.00,,,0.00,meteohub,2013-02-28 18:17:00,
2013-02-28 12:22:00,48.7,32.4,30.14,WNW,301,8.0,15.0,53,0.00,,,0.00,meteohub,2013-02-28 18:22:00,
2013-02-28 12:27:00,48.9,32.0,30.14,NW,314,9.0,15.0,52,0.00,,,0.00,meteohub,2013-02-28 18:27:00,
2013-02-28 12:32:00,49.5,33.1,30.14,NNW,327,12.0,15.0,53,0.00,,,0.00,meteohub,2013-02-28 18:32:00,
2013-02-28 12:36:00,49.3,32.9,30.14,NW,317,8.0,16.0,53,0.00,,,0.00,meteohub,2013-02-28 18:36:00,
2013-02-28 12:42:00,49.5,32.0,30.14,West,274,7.0,16.0,51,0.00,,,0.00,meteohub,2013-02-28 18:42:00,
2013-02-28 12:47:00,49.1,31.8,30.13,NW,306,13.0,16.0,51,0.00,,,0.00,meteohub,2013-02-28 18:47:00,
2013-02-28 12:52:00,49.1,31.8,30.13,WNW,297,10.0,15.0,51,0.00,,,0.00,meteohub,2013-02-28 18:52:00,
2013-02-28 12:57:00,49.5,33.1,30.13,WNW,288,14.0,15.0,53,0.00,,,0.00,meteohub,2013-02-28 18:57:00,
2013-02-28 13:02:00,49.5,32.0,30.13,NW,319,9.0,15.0,51,0.00,,,0.00,meteohub,2013-02-28 19:02:00,
2013-02-28 13:07:00,49.5,32.0,30.12,NW,321,9.0,15.0,51,0.00,,,0.00,meteohub,2013-02-28 19:07:00,
2013-02-28 13:12:00,49.5,32.0,30.12,WNW,290,9.0,15.0,51,0.00,,,0.00,meteohub,2013-02-28 19:12:00,
2013-02-28 13:17:00,49.5,32.0,30.12,NNW,329,6.0,14.0,51,0.00,,,0.00,meteohub,2013-02-28 19:17:00,
2013-02-28 13:22:00,49.8,32.9,30.12,WNW,294,8.0,14.0,52,0.00,,,0.00,meteohub,2013-02-28 19:22:00,
2013-02-28 13:27:00,50.2,32.2,30.12,West,273,12.0,14.0,50,0.00,,,0.00,meteohub,2013-02-28 19:27:00,
2013-02-28 13:32:00,49.8,32.0,30.11,NNW,328,10.0,15.0,50,0.00,,,0.00,meteohub,2013-02-28 19:32:00,
2013-02-28 13:37:00,49.5,31.6,30.10,NNW,338,12.0,16.0,50,0.00,,,0.00,meteohub,2013-02-28 19:37:00,
2013-02-28 13:42:00,49.5,31.1,30.11,NNW,327,5.0,16.0,49,0.00,,,0.00,meteohub,2013-02-28 19:42:00,
2013-02-28 13:47:00,49.6,32.2,30.11,NW,320,10.0,16.0,51,0.00,,,0.00,meteohub,2013-02-28 19:47:00,
2013-02-28 13:52:00,50.0,32.5,30.11,West,276,9.0,15.0,51,0.00,,,0.00,meteohub,2013-02-28 19:52:00,
2013-02-28 13:57:00,50.0,32.5,30.11,WNW,298,6.0,15.0,51,0.00,,,0.00,meteohub,2013-02-28 19:57:00,
2013-02-28 14:02:00,50.2,31.8,30.11,WNW,292,9.0,14.0,49,0.00,,,0.00,meteohub,2013-02-28 20:02:00,
2013-02-28 14:07:00,49.8,32.0,30.11,NW,319,9.0,16.0,50,0.00,,,0.00,meteohub,2013-02-28 20:07:00,
2013-02-28 14:12:00,49.8,32.4,30.10,NNW,338,7.0,16.0,51,0.00,,,0.00,meteohub,2013-02-28 20:12:00,
2013-02-28 14:17:00,49.5,32.0,30.10,NW,318,5.0,16.0,51,0.00,,,0.00,meteohub,2013-02-28 20:17:00,
2013-02-28 14:22:00,49.5,32.0,30.11,WNW,290,10.0,15.0,51,0.00,,,0.00,meteohub,2013-02-28 20:22:00,
2013-02-28 14:27:00,49.5,32.0,30.11,NW,315,8.0,15.0,51,0.00,,,0.00,meteohub,2013-02-28 20:27:00,
2013-02-28 14:32:00,49.5,32.5,30.11,NNW,333,6.0,15.0,52,0.00,,,0.00,meteohub,2013-02-28 20:32:00,
2013-02-28 14:37:00,49.5,32.5,30.10,NW,325,11.0,15.0,52,0.00,,,0.00,meteohub,2013-02-28 20:37:00,
2013-02-28 14:42:00,49.3,32.0,30.10,NW,313,7.0,15.0,51,0.00,,,0.00,meteohub,2013-02-28 20:42:00,
2013-02-28 14:47:00,49.5,32.5,30.10,WNW,300,9.0,15.0,52,0.00,,,0.00,meteohub,2013-02-28 20:47:00,
2013-02-28 14:52:00,49.5,32.0,30.10,WNW,298,7.0,15.0,51,0.00,,,0.00,meteohub,2013-02-28 20:52:00,
2013-02-28 14:57:00,49.5,32.0,30.10,NW,309,5.0,15.0,51,0.00,,,0.00,meteohub,2013-02-28 20:57:00,
2013-02-28 15:02:00,49.5,32.0,30.10,NNW,327,8.0,15.0,51,0.00,,,0.00,meteohub,2013-02-28 21:02:00,
2013-02-28 15:07:00,49.5,32.5,30.09,WNW,301,6.0,14.0,52,0.00,,,0.00,meteohub,2013-02-28 21:07:00,
2013-02-28 15:12:00,49.5,32.0,30.09,WNW,290,5.0,13.0,51,0.00,,,0.00,meteohub,2013-02-28 21:12:00,
2013-02-28 15:17:00,49.3,32.4,30.09,West,281,4.0,13.0,52,0.00,,,0.00,meteohub,2013-02-28 21:17:00,
2013-02-28 15:21:00,49.5,32.5,30.09,NW,312,7.0,12.0,52,0.00,,,0.00,meteohub,2013-02-28 21:21:00,
2013-02-28 15:26:00,49.5,33.1,30.09,WNW,296,10.0,12.0,53,0.00,,,0.00,meteohub,2013-02-28 21:26:00,
2013-02-28 15:31:00,49.5,32.0,30.09,NW,316,5.0,11.0,51,0.00,,,0.00,meteohub,2013-02-28 21:31:00,
2013-02-28 15:36:00,49.6,33.3,30.09,WNW,295,5.0,10.0,53,0.00,,,0.00,meteohub,2013-02-28 21:36:00,
2013-02-28 15:42:00,49.6,32.7,30.09,NW,317,7.0,10.0,52,0.00,,,0.00,meteohub,2013-02-28 21:42:00,
2013-02-28 15:47:00,49.6,33.3,30.09,WNW,292,5.0,10.0,53,0.00,,,0.00,meteohub,2013-02-28 21:47:00,
2013-02-28 15:52:00,49.5,33.1,30.08,WNW,294,9.0,10.0,53,0.00,,,0.00,meteohub,2013-02-28 21:52:00,
2013-02-28 15:57:00,49.5,33.4,30.08,WNW,290,10.0,10.0,54,0.00,,,0.00,meteohub,2013-02-28 21:57:00,
2013-02-28 16:02:00,49.6,33.3,30.08,WNW,284,6.0,10.0,53,0.00,,,0.00,meteohub,2013-02-28 22:02:00,
2013-02-28 16:07:00,49.8,33.4,30.08,WNW,298,3.0,10.0,53,0.00,,,0.00,meteohub,2013-02-28 22:07:00,
2013-02-28 16:12:00,49.8,33.4,30.08,West,281,5.0,10.0,53,0.00,,,0.00,meteohub,2013-02-28 22:12:00,
2013-02-28 16:17:00,49.8,33.4,30.08,WNW,288,3.0,9.0,53,0.00,,,0.00,meteohub,2013-02-28 22:17:00,
2013-02-28 16:22:00,50.0,34.0,30.08,West,280,7.0,9.0,54,0.00,,,0.00,meteohub,2013-02-28 22:22:00,
2013-02-28 16:27:00,50.0,34.5,30.08,WNW,294,3.0,8.0,55,0.00,,,0.00,meteohub,2013-02-28 22:27:00,
2013-02-28 16:32:00,50.2,34.2,30.08,West,277,3.0,8.0,54,0.00,,,0.00,meteohub,2013-02-28 22:32:00,
2013-02-28 16:37:00,50.0,34.0,30.08,West,277,4.0,8.0,54,0.00,,,0.00,meteohub,2013-02-28 22:37:00,
2013-02-28 16:42:00,50.4,33.8,30.08,NW,304,4.0,8.0,53,0.00,,,0.00,meteohub,2013-02-28 22:42:00,
2013-02-28 16:47:00,50.5,34.0,30.08,WNW,303,1.0,7.0,53,0.00,,,0.00,meteohub,2013-02-28 22:47:00,
2013-02-28 16:52:00,50.7,34.7,30.08,WNW,286,6.0,7.0,54,0.00,,,0.00,meteohub,2013-02-28 22:52:00,
2013-02-28 16:57:00,50.5,33.6,30.08,WNW,289,3.0,8.0,52,0.00,,,0.00,meteohub,2013-02-28 22:57:00,
2013-02-28 17:02:00,50.5,33.6,30.08,WNW,296,8.0,9.0,52,0.00,,,0.00,meteohub,2013-02-28 23:02:00,
2013-02-28 17:07:00,50.5,33.6,30.08,WNW,300,5.0,9.0,52,0.00,,,0.00,meteohub,2013-02-28 23:07:00,
2013-02-28 17:12:00,50.5,33.6,30.08,WNW,292,2.0,9.0,52,0.00,,,0.00,meteohub,2013-02-28 23:12:00,
2013-02-28 17:17:00,50.5,34.5,30.09,WNW,290,1.0,9.0,54,0.00,,,0.00,meteohub,2013-02-28 23:17:00,
2013-02-28 17:22:00,50.5,34.5,30.08,WNW,290,3.0,8.0,54,0.00,,,0.00,meteohub,2013-02-28 23:22:00,
2013-02-28 17:27:00,50.7,34.2,30.08,WNW,290,2.0,7.0,53,0.00,,,0.00,meteohub,2013-02-28 23:27:00,
2013-02-28 17:32:00,50.7,34.2,30.08,WNW,292,6.0,7.0,53,0.00,,,0.00,meteohub,2013-02-28 23:32:00,
2013-02-28 17:37:00,50.7,33.8,30.08,WNW,294,2.0,7.0,52,0.00,,,0.00,meteohub,2013-02-28 23:37:00,
2013-02-28 17:42:00,50.7,34.7,30.09,WNW,294,5.0,6.0,54,0.00,,,0.00,meteohub,2013-02-28 23:42:00,
2013-02-28 17:47:00,50.7,34.7,30.08,WNW,294,3.0,6.0,54,0.00,,,0.00,meteohub,2013-02-28 23:47:00,
2013-02-28 17:52:00,50.7,34.7,30.08,WNW,294,2.0,6.0,54,0.00,,,0.00,meteohub,2013-02-28 23:52:00,
2013-02-28 17:57:00,50.7,35.1,30.09,WNW,294,2.0,6.0,55,0.00,,,0.00,meteohub,2013-02-28 23:57:00,
2013-02-28 18:02:00,50.5,34.5,30.09,WNW,294,0.0,5.0,54,0.00,,,0.00,meteohub,2013-03-01 00:02:00,
2013-02-28 18:07:00,50.5,36.0,30.09,WNW,294,2.0,5.0,57,0.00,,,0.00,meteohub,2013-03-01 00:07:00,
2013-02-28 18:12:00,50.2,36.9,30.09,WNW,294,3.0,5.0,60,0.00,,,0.00,meteohub,2013-03-01 00:12:00,
2013-02-28 18:17:00,49.6,36.7,30.10,WNW,294,4.0,5.0,61,0.00,,,0.00,meteohub,2013-03-01 00:17:00,
2013-02-28 18:21:00,49.5,37.0,30.09,WNW,294,2.0,5.0,62,0.00,,,0.00,meteohub,2013-03-01 00:21:00,
2013-02-28 18:27:00,49.3,37.2,30.10,WNW,294,0.0,5.0,63,0.00,,,0.00,meteohub,2013-03-01 00:27:00,
2013-02-28 18:32:00,49.3,37.2,30.10,WNW,294,0.0,4.0,63,0.00,,,0.00,meteohub,2013-03-01 00:32:00,
2013-02-28 18:37:00,49.1,36.7,30.10,WNW,294,0.0,4.0,62,0.00,,,0.00,meteohub,2013-03-01 00:37:00,
2013-02-28 18:42:00,49.1,36.7,30.10,WNW,294,0.0,3.0,62,0.00,,,0.00,meteohub,2013-03-01 00:42:00,
2013-02-28 18:47:00,49.3,36.0,30.10,WNW,294,0.0,3.0,60,0.00,,,0.00,meteohub,2013-03-01 00:47:00,
2013-02-28 18:52:00,49.3,35.6,30.10,WNW,294,0.0,3.0,59,0.00,,,0.00,meteohub,2013-03-01 00:52:00,
2013-02-28 18:57:00,49.3,35.6,30.10,WNW,294,1.0,2.0,59,0.00,,,0.00,meteohub,2013-03-01 00:57:00,
2013-02-28 19:02:00,49.3,35.6,30.10,WNW,294,0.0,2.0,59,0.00,,,0.00,meteohub,2013-03-01 01:02:00,
2013-02-28 19:07:00,49.3,37.2,30.10,WNW,294,0.0,2.0,63,0.00,,,0.00,meteohub,2013-03-01 01:07:00,
2013-02-28 19:12:00,48.9,36.9,30.10,WNW,294,0.0,2.0,63,0.00,,,0.00,meteohub,2013-03-01 01:12:00,
2013-02-28 19:17:00,48.7,36.3,30.10,WNW,294,0.0,1.0,62,0.00,,,0.00,meteohub,2013-03-01 01:17:00,
2013-02-28 19:22:00,48.7,36.0,30.11,WNW,294,1.0,1.0,61,0.00,,,0.00,meteohub,2013-03-01 01:22:00,
2013-02-28 19:27:00,48.7,36.0,30.11,WNW,294,0.0,2.0,61,0.00,,,0.00,meteohub,2013-03-01 01:27:00,
2013-02-28 19:32:00,48.7,36.3,30.11,WNW,294,0.0,2.0,62,0.00,,,0.00,meteohub,2013-03-01 01:32:00,
2013-02-28 19:37:00,48.6,36.9,30.11,WNW,294,0.0,2.0,64,0.00,,,0.00,meteohub,2013-03-01 01:37:00,
2013-02-28 19:42:00,48.4,36.7,30.11,WNW,294,1.0,1.0,64,0.00,,,0.00,meteohub,2013-03-01 01:42:00,
2013-02-28 19:47:00,48.2,36.1,30.12,WNW,294,1.0,2.0,63,0.00,,,0.00,meteohub,2013-03-01 01:47:00,
2013-02-28 19:52:00,48.4,36.0,30.12,WNW,294,1.0,3.0,62,0.00,,,0.00,meteohub,2013-03-01 01:52:00,
2013-02-28 19:57:00,48.4,36.3,30.12,WNW,294,2.0,3.0,63,0.00,,,0.00,meteohub,2013-03-01 01:57:00,
2013-02-28 20:02:00,48.0,36.9,30.12,WNW,294,2.0,3.0,65,0.00,,,0.00,meteohub,2013-03-01 02:02:00,
2013-02-28 20:07:00,47.8,36.3,30.12,WNW,294,0.0,3.0,64,0.00,,,0.00,meteohub,2013-03-01 02:07:00,
2013-02-28 20:12:00,47.8,36.3,30.12,WNW,294,1.0,3.0,64,0.00,,,0.00,meteohub,2013-03-01 02:12:00,
2013-02-28 20:17:00,47.8,36.3,30.12,WNW,294,1.0,3.0,64,0.00,,,0.00,meteohub,2013-03-01 02:17:00,
2013-02-28 20:22:00,47.8,36.3,30.13,WNW,294,0.0,3.0,64,0.00,,,0.00,meteohub,2013-03-01 02:22:00,
2013-02-28 20:27:00,47.8,36.7,30.13,WNW,294,0.0,2.0,65,0.00,,,0.00,meteohub,2013-03-01 02:27:00,
2013-02-28 20:32:00,47.8,37.0,30.13,WNW,294,0.0,2.0,66,0.00,,,0.00,meteohub,2013-03-01 02:32:00,
2013-02-28 20:37:00,47.8,37.0,30.13,WNW,294,0.0,2.0,66,0.00,,,0.00,meteohub,2013-03-01 02:37:00,
2013-02-28 20:42:00,47.7,37.2,30.13,WNW,294,0.0,2.0,67,0.00,,,0.00,meteohub,2013-03-01 02:42:00,
2013-02-28 20:47:00,47.7,37.2,30.13,WNW,294,0.0,0.0,67,0.00,,,0.00,meteohub,2013-03-01 02:47:00,
2013-02-28 20:52:00,47.7,37.2,30.13,WNW,294,0.0,0.0,67,0.00,,,0.00,meteohub,2013-03-01 02:52:00,
2013-02-28 20:57:00,47.7,37.2,30.13,WNW,294,0.0,0.0,67,0.00,,,0.00,meteohub,2013-03-01 02:57:00,
2013-02-28 21:02:00,47.7,37.2,30.14,WNW,294,0.0,0.0,67,0.00,,,0.00,meteohub,2013-03-01 03:02:00,
2013-02-28 21:07:00,47.5,37.0,30.14,WNW,294,1.0,0.0,67,0.00,,,0.00,meteohub,2013-03-01 03:07:00,
2013-02-28 21:12:00,47.5,37.0,30.14,WNW,294,0.0,2.0,67,0.00,,,0.00,meteohub,2013-03-01 03:12:00,
2013-02-28 21:17:00,47.5,37.0,30.14,WNW,294,0.0,2.0,67,0.00,,,0.00,meteohub,2013-03-01 03:17:00,
2013-02-28 21:22:00,47.5,37.4,30.14,WNW,294,0.0,2.0,68,0.00,,,0.00,meteohub,2013-03-01 03:22:00,
2013-02-28 21:27:00,47.5,37.4,30.14,WNW,294,0.0,2.0,68,0.00,,,0.00,meteohub,2013-03-01 03:27:00,
2013-02-28 21:32:00,47.5,37.4,30.14,WNW,294,1.0,2.0,68,0.00,,,0.00,meteohub,2013-03-01 03:32:00,
2013-02-28 21:37:00,47.5,37.8,30.14,WNW,294,0.0,2.0,69,0.00,,,0.00,meteohub,2013-03-01 03:37:00,
2013-02-28 21:42:00,47.7,37.9,30.14,WNW,294,2.0,3.0,69,0.00,,,0.00,meteohub,2013-03-01 03:42:00,
2013-02-28 21:47:00,47.7,37.9,30.14,WNW,294,0.0,5.0,69,0.00,,,0.00,meteohub,2013-03-01 03:47:00,
2013-02-28 21:52:00,47.8,38.1,30.14,WNW,294,3.0,5.0,69,0.00,,,0.00,meteohub,2013-03-01 03:52:00,
2013-02-28 21:57:00,47.8,38.1,30.14,WNW,294,2.0,5.0,69,0.00,,,0.00,meteohub,2013-03-01 03:57:00,
2013-02-28 22:02:00,47.7,38.3,30.15,WNW,294,1.0,4.0,70,0.00,,,0.00,meteohub,2013-03-01 04:02:00,
2013-02-28 22:07:00,47.7,38.3,30.14,WNW,294,3.0,5.0,70,0.00,,,0.00,meteohub,2013-03-01 04:07:00,
2013-02-28 22:12:00,47.7,38.3,30.14,WNW,294,3.0,5.0,70,0.00,,,0.00,meteohub,2013-03-01 04:12:00,
2013-02-28 22:17:00,47.7,38.7,30.14,WNW,294,3.0,5.0,71,0.00,,,0.00,meteohub,2013-03-01 04:17:00,
2013-02-28 22:22:00,47.7,38.7,30.14,WNW,294,0.0,4.0,71,0.00,,,0.00,meteohub,2013-03-01 04:22:00,
2013-02-28 22:27:00,47.5,38.8,30.14,WNW,294,1.0,4.0,72,0.00,,,0.00,meteohub,2013-03-01 04:27:00,
2013-02-28 22:32:00,47.5,38.8,30.14,WNW,294,2.0,4.0,72,0.00,,,0.00,meteohub,2013-03-01 04:32:00,
2013-02-28 22:37:00,47.3,38.7,30.14,WNW,294,1.0,3.0,72,0.00,,,0.00,meteohub,2013-03-01 04:37:00,
2013-02-28 22:42:00,47.3,38.7,30.14,WNW,294,0.0,3.0,72,0.00,,,0.00,meteohub,2013-03-01 04:42:00,
2013-02-28 22:47:00,47.3,39.0,30.14,WNW,294,0.0,3.0,73,0.00,,,0.00,meteohub,2013-03-01 04:47:00,
2013-02-28 22:52:00,47.1,38.8,30.14,WNW,294,0.0,3.0,73,0.00,,,0.00,meteohub,2013-03-01 04:52:00,
2013-02-28 22:57:00,47.1,38.8,30.14,WNW,294,1.0,3.0,73,0.00,,,0.00,meteohub,2013-03-01 04:57:00,
2013-02-28 23:00:00,47.1,38.8,30.14,WNW,294,0.0,3.0,73,0.00,,,0.00,meteohub,2013-03-01 05:00:00,
2013-02-28 23:06:00,47.1,38.5,30.13,WNW,294,0.0,2.0,72,0.00,,,0.00,meteohub,2013-03-01 05:06:00,
2013-02-28 23:11:00,46.9,38.3,30.13,WNW,294,0.0,2.0,72,0.00,,,0.00,meteohub,2013-03-01 05:11:00,
2013-02-28 23:16:00,46.9,38.3,30.13,WNW,294,0.0,2.0,72,0.00,,,0.00,meteohub,2013-03-01 05:16:00,
2013-02-28 23:21:00,46.8,38.3,30.14,WNW,294,1.0,2.0,72,0.00,,,0.00,meteohub,2013-03-01 05:21:00,
2013-02-28 23:26:00,46.8,38.5,30.14,WNW,294,0.0,2.0,73,0.00,,,0.00,meteohub,2013-03-01 05:26:00,
2013-02-28 23:31:00,46.6,38.1,30.13,WNW,294,0.0,2.0,72,0.00,,,0.00,meteohub,2013-03-01 05:31:00,
2013-02-28 23:36:00,46.4,38.3,30.13,WNW,294,0.0,2.0,73,0.00,,,0.00,meteohub,2013-03-01 05:36:00,
2013-02-28 23:41:00,46.2,38.1,30.13,WNW,294,0.0,2.0,73,0.00,,,0.00,meteohub,2013-03-01 05:41:00,
2013-02-28 23:46:00,46.0,37.9,30.13,WNW,294,0.0,2.0,73,0.00,,,0.00,meteohub,2013-03-01 05:46:00,
2013-02-28 23:51:00,45.9,38.1,30.13,WNW,294,0.0,2.0,74,0.00,,,0.00,meteohub,2013-03-01 05:51:00,
2013-02-28 23:56:00,45.7,38.3,30.13,WNW,294,0.0,1.0,75,0.00,,,0.00,meteohub,2013-03-01 05:56:00,